Flag for U.S.A. Weather past 2 weeks in Oakland, California, U.S.A.

Now
55 °F

Mostly cloudy.


Feels Like: 50 °F
Forecast: 51 / 61 °F
Wind: 18 mph from Northwest

Location: Metro Oakland International Airport

Current Time: Apr 25, 2015 at 5:37:08 AM

Latest Report: Apr 25, 2015 at 4:53 AM


Visibility: 9 mi

Pressure: 29.90 "Hg

Humidity: 90%

Dew point: 52 °F

Location of OaklandLocation

Historic Weather in Oakland — Graph

°F

Oakland temperature yesterday

Maximum temperature yesterday: 63 °F (at 1:53 PM)
Minimum temperature yesterday: 52 °F (at 6:53 AM)
Average temperature yesterday: 57 °F

Past Weeks' High & Low Weather Summary

 TemperatureHumidityPressure
High81 °F (Apr 16, 2:53 PM)97% (Apr 12, 7:53 AM)30.34 "Hg (Apr 12, 7:53 AM)
Low46 °F (Apr 10, 4:53 AM)12% (Apr 16, 2:53 PM)29.85 "Hg (Apr 20, 6:53 PM)
Average57 °F67%30.00 "Hg
* Reported Apr 10 3:53 AM — Apr 25 3:53 AM, Oakland, Weather by CustomWeather, © 2015

Note: Actual official high and low records may vary slightly from our data, if they occured in-between our weather recording intervals... More about our weather records

Advertising

Oakland weather history for previous 24 hours

 ConditionsComfort  
Time TempWeatherWind HumidityBarometerVisibility
3:53 AM
Sat, Apr 25
55 °FMostly cloudy.16 mph93%29.90 "Hg9 mi
2:53 AM57 °FLight rain. Overcast.24 mph90%29.89 "Hg7 mi
1:53 AM58 °FRain. Fog.22 mph90%29.90 "Hg6 mi
12:53 AM57 °FRain. Mostly cloudy.17 mph90%29.93 "Hg7 mi
11:53 PM
Fri, Apr 24
56 °FLight rain. Mostly cloudy.20 mph90%29.95 "Hg9 mi
10:53 PM55 °FOvercast.16 mph87%29.98 "Hg10 mi
9:53 PM55 °FLight rain. Mostly cloudy.13 mph83%30.01 "Hg5 mi
8:53 PM56 °FMostly cloudy.9 mph70%30.02 "Hg10 mi
7:53 PM56 °FCloudy.13 mph70%30.02 "Hg10 mi
6:53 PM57 °FCloudy.15 mph67%30.03 "Hg10 mi
5:53 PM58 °FBroken clouds.18 mph60%30.02 "Hg10 mi
3:53 PM61 °FPartly sunny.23 mph54%30.01 "Hg10 mi
2:53 PM62 °FScattered clouds.22 mph50%30.02 "Hg10 mi
1:53 PM63 °FScattered clouds.22 mph48%30.02 "Hg10 mi
12:53 PM62 °FScattered clouds.22 mph52%30.03 "Hg10 mi
11:53 AM61 °FScattered clouds.22 mph56%30.02 "Hg10 mi
10:53 AM60 °FScattered clouds.21 mph62%30.02 "Hg10 mi
9:53 AM57 °FScattered clouds.18 mph67%30.00 "Hg10 mi
8:53 AM54 °FBroken clouds.21 mph74%29.98 "Hg10 mi
7:53 AM53 °FBroken clouds.17 mph80%29.96 "Hg10 mi
6:53 AM52 °FPassing clouds.25 mph89%29.94 "Hg10 mi
5:53 AM53 °FPassing clouds.29 mph86%29.91 "Hg10 mi
Weather by CustomWeather, © 2015

See weather overviewHow to use our weather pages